[[{"header":{"parameterUnit":"m.s-1","parameterCategory":1,"la1":30.2991,"la2":30.254,"lo1":-89.0895,"lo2":-89.0444,"dy":0.0017,"dx":0.0017,"nx":28,"ny":28,"refTime":"2025-04-22T21:00:00:Z","depth":0,"parameterNumber":2,"parameterNumberName":"U-component_of_WINDS"},"data":[0,0,0,0,0,0,0,0,0,0,0,0,0,0,0,0,0,0,0,0,0,0,0,0,0,0,0,0,0,0,0,0,0,0,0,0,0,0,0,0,0,0,0,0,0,0,0,0,0,0,0,0,0,0,0,0,0,0,-2.6577,-2.6577,0,-2.6583,-2.6583,-2.6583,-2.6511,-2.6509,-2.6507,-2.6505,-2.651,-2.6512,-2.6514,0,0,0,0,0,0,0,0,0,0,0,0,0,-2.6504,-2.6505,-2.6577,-2.6577,-2.6577,-2.6583,-2.6583,-2.6583,-2.6511,-2.6508,-2.6506,-2.6504,-2.651,-2.6512,-2.6514,0,0,0,0,0,0,0,0,0,0,0,0,0,-2.6525,-2.6506,-2.6577,-2.6542,-2.6539,-2.6583,-2.6583,-2.6583,-2.6511,-2.6508,-2.6505,-2.6503,-2.6509,-2.6512,-2.6515,-2.6592,0,0,-2.6524,-2.6525,0,0,0,0,0,0,0,0,-2.6524,-2.6528,-2.6547,-2.6544,-2.6541,-2.6543,-2.6559,-2.6586,-2.6512,-2.6522,-2.6505,-2.6501,-2.6523,-2.6525,-2.6533,-2.6593,-2.6593,-2.6524,-2.6526,-2.6527,-2.6528,0,0,0,0,0,0,0,-2.6523,-2.6527,-2.6579,-2.6547,-2.6544,-2.6526,-2.6526,-2.6564,-2.6539,-2.6521,-2.6515,-2.6517,-2.6521,-2.653,-2.6532,-2.6593,-2.6524,-2.6527,-2.6528,-2.653,-2.6717,-2.672,0,0,0,0,0,0,-2.6526,-2.6526,-2.6579,-2.6579,-2.6525,-2.653,-2.6529,-2.6545,-2.6539,-2.6535,-2.652,-2.6514,-2.6526,-2.6529,-2.6532,-2.6622,-2.6527,-2.653,-2.6532,-2.6714,-2.6718,-2.6721,0,0,0,0,0,0,-2.6525,-2.6531,-2.6579,-2.6552,-2.6556,-2.6534,-2.6553,-2.6547,-2.6555,-2.6538,-2.6533,-2.6533,-2.6524,-2.6528,-2.6578,-2.6622,-2.6531,-2.6534,-2.671,-2.6715,-2.6719,-2.6804,0,0,0,0,0,0,-2.6523,-2.6531,-2.656,-2.6553,-2.6558,-2.6625,-2.6555,-2.6549,-2.6561,-2.6553,-2.6549,-2.6546,-2.6522,-2.6574,-2.6581,-2.6624,-2.6536,-2.6706,-2.6712,-2.6718,-2.6797,-2.6811,-2.6823,0,0,0,0,0,-2.652,-2.6584,-2.6562,-2.6569,-2.6594,-2.6628,-2.663,-2.6602,-2.6565,-2.6594,-2.6583,-2.6546,-2.6616,-2.658,-2.6587,-2.6632,-2.6703,-2.671,-2.6717,-2.6791,-2.6808,-2.6823,0,0,0,0,0,0,-2.6597,-2.6582,-2.6558,-2.6621,-2.6626,-2.6615,-2.6651,-2.6621,-2.6637,-2.6629,-2.6593,-2.6593,-2.6649,-2.6645,-2.6605,-2.6707,-2.6653,-2.6662,-2.6707,-2.6723,-2.6735,-2.6735,-2.6539,0,0,0,0,0,-2.6622,-2.665,-2.6635,-2.6692,-2.6696,-2.6674,-2.6687,-2.6665,-2.6669,-2.667,-2.6662,-2.6668,-2.669,-2.6706,-2.6727,-2.6797,-2.6795,-2.6831,-2.6844,-2.6855,-2.6863,-2.6899,-2.6915,-2.6745,-2.6745,-2.6744,0,0,-2.6672,-2.6667,-2.6687,-2.6708,-2.6709,-2.6739,-2.6676,-2.671,-2.6732,-2.6675,-2.6722,-2.6717,-2.672,-2.678,-2.6806,-2.6779,-2.6909,-2.6864,-2.6872,-2.6875,-2.6908,-2.6924,-2.6939,-2.675,-2.6749,-2.6748,0,0,-2.6779,-2.6779,-2.6826,-2.6829,-2.6832,-2.6816,-2.6828,-2.6822,-2.6816,-2.6862,-2.682,-2.6846,-2.6887,-2.6891,-2.6898,-2.7008,-2.6974,-2.7015,-2.7082,-2.7119,-2.7132,-2.7144,-2.7183,-2.7197,-2.7024,-2.7024,-2.7024,0,-2.6841,-2.6885,-2.6854,-2.6892,-2.6902,-2.6852,-2.69,-2.6904,-2.6914,-2.6922,-2.6891,-2.6941,-2.694,-2.7,-2.7027,-2.7035,-2.7047,-2.7015,-2.7133,-2.7144,-2.7155,-2.7191,-2.7206,-2.7029,-2.7028,-2.7028,-2.7027,0,-2.6961,-2.6992,-2.703,-2.7041,-2.7055,-2.7098,-2.7074,-2.7092,-2.7069,-2.7057,-2.7105,-2.7102,-2.7121,-2.7133,-2.7111,-2.7191,-2.7174,-2.7139,-2.7084,-2.7176,-2.721,-2.7224,-2.7036,-2.7034,-2.7033,-2.7031,0,0,-2.7116,-2.7109,-2.7124,-2.7128,-2.7128,-2.7151,-2.7192,-2.721,-2.7227,-2.7235,-2.7268,-2.7304,-2.7272,-2.728,-2.7258,-2.729,-2.7377,-2.725,-2.725,-2.7274,-2.7464,-2.749,-2.7507,-2.7355,-2.7357,-2.7359,-2.7464,0,-2.7219,-2.7288,-2.7262,-2.7332,-2.7361,-2.7315,-2.735,-2.7354,-2.7344,-2.7366,-2.7355,-2.7381,-2.7336,-2.7341,-2.7371,-2.736,-2.7414,-2.7352,-2.7385,-2.7386,-2.7385,-2.7525,-2.7552,-2.7651,-2.7477,-2.7479,-2.7481,0,-2.7349,-2.7364,-2.7437,-2.7432,-2.7443,-2.7476,-2.7491,-2.7513,-2.7516,-2.7507,-2.7517,-2.7488,-2.7527,-2.7474,-2.7527,-2.7485,-2.7497,-2.7494,-2.7497,-2.7499,-2.7439,-2.753,-2.7682,-2.7697,-2.7501,-2.75,-2.7498,0,-2.7454,-2.7492,-2.7541,-2.7546,-2.7542,-2.7565,-2.7565,-2.7565,-2.7578,-2.7592,-2.76,-2.7618,-2.7627,-2.7642,-2.7619,-2.7582,-2.7675,-2.762,-2.7668,-2.7669,-2.769,-2.7688,-2.7846,-2.7699,-2.7698,-2.7698,-2.7698,0,-2.7573,-2.7619,-2.7588,-2.7618,-2.7669,-2.7639,-2.769,-2.7684,-2.7685,-2.7713,-2.7675,-2.7702,-2.7669,-2.7694,-2.7676,-2.7723,-2.7727,-2.7721,-2.7715,-2.7724,-2.7725,-2.7731,-2.7723,-2.7702,-2.7701,-2.77,-2.77,0,-2.7698,-2.7679,-2.7729,-2.7721,-2.7721,-2.7759,-2.7752,-2.7779,-2.7767,-2.7803,-2.7809,-2.779,-2.7817,-2.7795,-2.7821,-2.7809,-2.7871,-2.7856,-2.787,-2.7865,-2.7915,-2.7911,-2.8081,-2.8102,-2.7942,-2.7944,-2.7945,0,-2.7775,-2.7809,-2.7806,-2.7822,-2.7824,-2.785,-2.7863,-2.7835,-2.7851,-2.7858,-2.7884,-2.7908,-2.7924,-2.7969,-2.7957,-2.7976,-2.7961,-2.802,-2.7964,-2.7972,-2.7962,-2.796,-2.7963,-2.8031,-2.8033,-2.8034,-2.8036,0,-2.7912,-2.7901,-2.7922,-2.7939,-2.7956,-2.7969,-2.7978,-2.7994,-2.7965,-2.7984,-2.8011,-2.8024,-2.8051,-2.8074,-2.809,-2.8089,-2.8058,-2.8053,-2.8066,-2.8074,-2.8081,-2.8078,-2.79,-2.8049,-2.8048,-2.8047,-2.8046,-2.8046,-2.8015,-2.8044,-2.8046,-2.807,-2.8074,-2.8084,-2.811,-2.8101,-2.8123,-2.8142,-2.8124,-2.8156,-2.8159,-2.8177,-2.818,-2.8205,-2.8181,-2.8198,-2.8203,-2.8208,-2.8215,-2.8078,-2.8208,-2.8207,-2.8207,-2.8207,-2.8206,0,-2.815,-2.8149,-2.8172,-2.8187,-2.8206,-2.8176,-2.8184,-2.8203,-2.8231,-2.8237,-2.8255,-2.8285,-2.8308,-2.8299,-2.8319,-2.834,-2.8326,-2.8346,-2.8344,-2.8344,-2.8235,-2.8223,-2.8357,-2.8357,-2.8357,-2.8357,-2.8357,-2.8357,-2.8223,-2.827,-2.8259,-2.8308,-2.8307,-2.8338,-2.8346,-2.8355,-2.8359,-2.8395,-2.8414,-2.8408,-2.8407,-2.8427,-2.8447,-2.8443,-2.8452,-2.8477,-2.8469,-2.8367,-2.8352,-2.8338,-2.8326,-2.848,-2.848,-2.8576,-2.8576,-2.8577]},{"header":{"parameterUnit":"m.s-1","parameterCategory":1,"la1":30.2991,"la2":30.254,"lo1":-89.0895,"lo2":-89.0444,"dy":0.0017,"dx":0.0017,"nx":28,"ny":28,"refTime":"2025-04-22T21:00:00:Z","depth":0,"parameterNumber":3,"parameterNumberName":"V-component_of_WINDS"},"data":[0,0,0,0,0,0,0,0,0,0,0,0,0,0,0,0,0,0,0,0,0,0,0,0,0,0,0,0,0,0,0,0,0,0,0,0,0,0,0,0,0,0,0,0,0,0,0,0,0,0,0,0,0,0,0,0,0,0,0.4188,0.4187,0,0.417,0.417,0.417,0.4151,0.4151,0.4151,0.415,0.4134,0.4134,0.4133,0,0,0,0,0,0,0,0,0,0,0,0,0,0.4205,0.4205,0.4188,0.4187,0.4187,0.4171,0.417,0.417,0.4151,0.4151,0.4151,0.415,0.4134,0.4134,0.4133,0,0,0,0,0,0,0,0,0,0,0,0,0,0.4194,0.4205,0.4188,0.4176,0.4175,0.4171,0.417,0.417,0.4151,0.4151,0.415,0.415,0.4134,0.4134,0.4133,0.414,0,0,0.4133,0.4132,0,0,0,0,0,0,0,0,0.4194,0.4193,0.4178,0.4177,0.4175,0.4163,0.417,0.416,0.4151,0.416,0.415,0.415,0.4144,0.4143,0.414,0.4139,0.4139,0.4133,0.4132,0.4132,0.4132,0,0,0,0,0,0,0,0.4195,0.4194,0.4181,0.4178,0.4176,0.4172,0.417,0.4168,0.4155,0.4159,0.4158,0.4156,0.4143,0.4141,0.414,0.4138,0.4133,0.4132,0.4132,0.4132,0.4142,0.4143,0,0,0,0,0,0,0.4198,0.4195,0.4181,0.418,0.4184,0.4172,0.4169,0.4167,0.4154,0.4152,0.4157,0.4155,0.4141,0.414,0.4139,0.4146,0.4132,0.4132,0.4132,0.4142,0.4142,0.4143,0,0,0,0,0,0,0.4198,0.4197,0.4182,0.4187,0.4185,0.4172,0.4169,0.4167,0.4165,0.4152,0.415,0.4157,0.4141,0.414,0.414,0.4146,0.4132,0.4132,0.4141,0.4142,0.4142,0.4161,0,0,0,0,0,0,0.4199,0.4197,0.4199,0.4187,0.4185,0.4183,0.417,0.4167,0.4164,0.4162,0.4152,0.415,0.4141,0.4141,0.414,0.4145,0.4131,0.4141,0.4141,0.4142,0.416,0.4162,0.4164,0,0,0,0,0,0.4199,0.4205,0.4199,0.4198,0.4187,0.4183,0.4182,0.4171,0.4165,0.4167,0.4159,0.415,0.4145,0.4141,0.414,0.4145,0.414,0.4141,0.4142,0.4159,0.4161,0.4164,0,0,0,0,0,0,0.4218,0.4203,0.4197,0.4199,0.4192,0.418,0.4183,0.4174,0.417,0.4169,0.4156,0.4153,0.4155,0.415,0.4146,0.4151,0.4141,0.4142,0.4154,0.4157,0.4159,0.416,0.4131,0,0,0,0,0,0.4223,0.422,0.4208,0.4211,0.4208,0.4196,0.4194,0.4186,0.4179,0.4176,0.4168,0.4162,0.4159,0.4158,0.4154,0.4159,0.4156,0.4162,0.4164,0.4166,0.4167,0.4169,0.4171,0.4146,0.4146,0.4146,0,0,0.4232,0.4223,0.4223,0.4214,0.4208,0.4207,0.4194,0.4193,0.4191,0.4176,0.4176,0.417,0.4162,0.4165,0.4166,0.4161,0.4173,0.4167,0.4169,0.4169,0.417,0.4173,0.4175,0.4147,0.4146,0.4146,0,0,0.4248,0.4241,0.4243,0.4237,0.4228,0.422,0.4221,0.421,0.4205,0.4205,0.4193,0.4192,0.4187,0.4182,0.4179,0.4193,0.4185,0.4192,0.4204,0.4206,0.4208,0.421,0.4215,0.4217,0.4193,0.4193,0.4193,0,0.426,0.4257,0.4245,0.4244,0.4241,0.4227,0.4229,0.4224,0.4215,0.4213,0.4208,0.4201,0.4195,0.4196,0.42,0.4198,0.4198,0.4193,0.4209,0.421,0.4212,0.4217,0.4219,0.4194,0.4194,0.4194,0.4194,0,0.4273,0.4271,0.4274,0.4265,0.4262,0.4263,0.4251,0.4249,0.4242,0.4235,0.4235,0.4227,0.4221,0.4221,0.4214,0.4221,0.4218,0.4211,0.4201,0.4215,0.422,0.4221,0.4196,0.4195,0.4195,0.4195,0,0,0.43,0.4285,0.4286,0.4282,0.4271,0.427,0.427,0.4265,0.4264,0.4258,0.4258,0.4254,0.4247,0.4244,0.4236,0.4238,0.425,0.423,0.4229,0.4234,0.4258,0.4264,0.4266,0.4244,0.4244,0.4244,0.4259,0,0.4315,0.4314,0.4303,0.4306,0.4304,0.4291,0.4291,0.4285,0.4278,0.4276,0.4268,0.4266,0.4256,0.4254,0.4255,0.4248,0.4254,0.4247,0.4244,0.4244,0.4247,0.4268,0.4275,0.4289,0.426,0.426,0.4261,0,0.4331,0.4326,0.4328,0.4318,0.4317,0.4317,0.4311,0.4309,0.4302,0.4297,0.4293,0.4284,0.4284,0.4274,0.4274,0.4269,0.4268,0.4264,0.4264,0.4264,0.4254,0.4269,0.4293,0.4295,0.4263,0.4263,0.4263,0,0.4352,0.4345,0.4346,0.4343,0.433,0.4331,0.4326,0.4318,0.4315,0.4311,0.4309,0.4304,0.4302,0.4298,0.4288,0.4282,0.429,0.4279,0.4286,0.4286,0.4288,0.4288,0.4312,0.4287,0.4287,0.4287,0.4286,0,0.4369,0.4371,0.4355,0.4355,0.4357,0.4345,0.4347,0.4341,0.4334,0.4333,0.4321,0.4321,0.4308,0.4306,0.4298,0.4299,0.4298,0.4294,0.4292,0.4296,0.4296,0.4295,0.4294,0.4287,0.4287,0.4287,0.4287,0,0.4392,0.4381,0.4381,0.4369,0.4366,0.4368,0.4358,0.4358,0.4351,0.435,0.4349,0.4337,0.4335,0.4324,0.4319,0.4313,0.4318,0.4313,0.432,0.4319,0.4326,0.4326,0.435,0.4353,0.4325,0.4325,0.4326,0,0.4404,0.4405,0.4393,0.4392,0.4387,0.4385,0.4382,0.437,0.4368,0.436,0.4361,0.4357,0.4353,0.435,0.4341,0.4337,0.4333,0.4342,0.4332,0.4335,0.4333,0.4333,0.4334,0.4344,0.4344,0.4344,0.4345,0,0.4426,0.4421,0.4418,0.4412,0.4409,0.4405,0.4399,0.4399,0.4385,0.4383,0.438,0.4378,0.4372,0.4369,0.4363,0.4358,0.4349,0.4348,0.4349,0.4353,0.4357,0.4355,0.4326,0.4347,0.4347,0.4347,0.4347,0.4347,0.4445,0.4445,0.4437,0.4434,0.4428,0.4423,0.4423,0.4415,0.4412,0.4407,0.44,0.4398,0.439,0.4382,0.4378,0.4376,0.4371,0.4373,0.4374,0.4374,0.4376,0.4357,0.4375,0.4375,0.4375,0.4375,0.4375,0,0.4467,0.4461,0.4458,0.4451,0.4448,0.4439,0.4433,0.4432,0.443,0.4424,0.442,0.4417,0.4413,0.4404,0.44,0.44,0.4396,0.44,0.44,0.4399,0.4381,0.438,0.4403,0.4403,0.4403,0.4403,0.4403,0.4403,0.4478,0.4479,0.4473,0.4471,0.4464,0.4462,0.4459,0.4455,0.445,0.4447,0.4444,0.4437,0.443,0.4425,0.4422,0.4419,0.4418,0.4423,0.4419,0.4403,0.44,0.4397,0.4397,0.4423,0.4423,0.4438,0.4438,0.4438]}]]